Time,TemperatureF,DewpointF,PressureIn,WindDirection,WindDirectionDegrees,WindSpeedMPH,WindSpeedGustMPH,Humidity,HourlyPrecipIn,Conditions,Clouds,dailyrainin,SoftwareType,DateUTC
2013-12-15 00:12:00,38.9,38.0,29.70,NNE,27,4.0,6.0,95,0.02,,,0.00,weatherlink.com 1.10,2013-12-15 05:12:00,
2013-12-15 00:32:00,39.1,38.0,29.68,NE,41,0.0,4.0,95,0.01,,,0.01,weatherlink.com 1.10,2013-12-15 05:32:00,
2013-12-15 00:50:00,39.1,38.0,29.66,NE,46,1.0,4.0,95,0.01,,,0.01,weatherlink.com 1.10,2013-12-15 05:50:00,
2013-12-15 01:08:00,39.5,39.0,29.64,NE,39,2.0,4.0,96,0.01,,,0.01,weatherlink.com 1.10,2013-12-15 06:08:00,
2013-12-15 01:28:00,40.2,39.0,29.65,East,79,1.0,8.0,96,0.01,,,0.01,weatherlink.com 1.10,2013-12-15 06:28:00,
2013-12-15 01:46:00,40.3,39.0,29.66,ENE,63,5.0,8.0,96,0.00,,,0.01,weatherlink.com 1.10,2013-12-15 06:46:00,
2013-12-15 02:04:00,40.4,39.0,29.65,ESE,115,0.0,12.0,96,0.00,,,0.01,weatherlink.com 1.10,2013-12-15 07:04:00,
2013-12-15 02:22:00,40.1,39.0,29.65,ENE,72,3.0,8.0,96,0.00,,,0.01,weatherlink.com 1.10,2013-12-15 07:22:00,
2013-12-15 02:42:00,39.8,39.0,29.66,NE,37,6.0,10.0,96,0.00,,,0.01,weatherlink.com 1.10,2013-12-15 07:42:00,
2013-12-15 03:00:00,39.4,38.0,29.67,NE,41,2.0,9.0,96,0.00,,,0.01,weatherlink.com 1.10,2013-12-15 08:00:00,
2013-12-15 03:18:00,39.1,38.0,29.67,ESE,121,3.0,12.0,96,0.01,,,0.02,weatherlink.com 1.10,2013-12-15 08:18:00,
2013-12-15 03:38:00,38.3,37.0,29.68,ESE,110,7.0,11.0,95,0.02,,,0.03,weatherlink.com 1.10,2013-12-15 08:38:00,
2013-12-15 03:56:00,37.6,36.0,29.68,East,89,3.0,11.0,95,0.02,,,0.03,weatherlink.com 1.10,2013-12-15 08:56:00,
2013-12-15 04:14:00,37.1,36.0,29.69,ENE,77,5.0,10.0,95,0.01,,,0.03,weatherlink.com 1.10,2013-12-15 09:14:00,
2013-12-15 04:34:00,36.3,35.0,29.70,SE,130,2.0,14.0,95,0.00,,,0.03,weatherlink.com 1.10,2013-12-15 09:34:00,
2013-12-15 04:52:00,36.1,35.0,29.70,ESE,113,5.0,9.0,95,0.00,,,0.03,weatherlink.com 1.10,2013-12-15 09:52:00,
2013-12-15 05:10:00,35.7,34.0,29.72,East,94,3.0,10.0,94,0.01,,,0.04,weatherlink.com 1.10,2013-12-15 10:10:00,
2013-12-15 05:28:00,34.9,33.0,29.72,ESE,105,3.0,14.0,94,0.01,,,0.04,weatherlink.com 1.10,2013-12-15 10:28:00,
2013-12-15 05:48:00,34.1,33.0,29.73,East,98,2.0,12.0,94,0.01,,,0.04,weatherlink.com 1.10,2013-12-15 10:48:00,
2013-12-15 06:07:00,33.7,33.0,29.75,SSE,148,2.0,9.0,95,0.00,,,0.04,weatherlink.com 1.10,2013-12-15 11:07:00,
2013-12-15 06:24:00,33.3,32.0,29.75,ESE,113,2.0,10.0,95,0.00,,,0.04,weatherlink.com 1.10,2013-12-15 11:24:00,
2013-12-15 06:44:00,33.1,32.0,29.77,NW,304,1.0,12.0,95,0.00,,,0.04,weatherlink.com 1.10,2013-12-15 11:44:00,
2013-12-15 07:02:00,32.8,32.0,29.77,SE,126,6.0,11.0,95,0.00,,,0.04,weatherlink.com 1.10,2013-12-15 12:02:00,
2013-12-15 07:20:00,32.6,31.0,29.77,SE,135,7.0,16.0,95,0.00,,,0.04,weatherlink.com 1.10,2013-12-15 12:20:00,
2013-12-15 07:40:00,32.4,31.0,29.78,East,90,1.0,10.0,95,0.00,,,0.04,weatherlink.com 1.10,2013-12-15 12:40:00,
2013-12-15 07:58:00,32.1,31.0,29.79,ESE,107,5.0,14.0,95,0.00,,,0.04,weatherlink.com 1.10,2013-12-15 12:58:00,
2013-12-15 08:16:00,31.8,30.0,29.79,SE,129,3.0,14.0,94,0.00,,,0.04,weatherlink.com 1.10,2013-12-15 13:16:00,
2013-12-15 08:36:00,31.0,29.0,29.80,ESE,112,4.0,11.0,93,0.00,,,0.04,weatherlink.com 1.10,2013-12-15 13:36:00,
2013-12-15 08:54:00,30.7,29.0,29.81,NE,39,9.0,12.0,93,0.00,,,0.04,weatherlink.com 1.10,2013-12-15 13:54:00,
2013-12-15 09:12:00,30.3,28.0,29.82,ESE,120,2.0,12.0,92,0.00,,,0.04,weatherlink.com 1.10,2013-12-15 14:12:00,
2013-12-15 09:30:00,29.9,28.0,29.83,SE,125,4.0,16.0,91,0.00,,,0.04,weatherlink.com 1.10,2013-12-15 14:30:00,
2013-12-15 09:50:00,29.6,27.0,29.84,ENE,77,7.0,13.0,91,0.00,,,0.04,weatherlink.com 1.10,2013-12-15 14:50:00,
2013-12-15 10:08:00,29.2,27.0,29.86,SE,132,3.0,12.0,90,0.00,,,0.04,weatherlink.com 1.10,2013-12-15 15:08:00,
2013-12-15 10:26:00,29.1,27.0,29.86,ESE,120,2.0,15.0,91,0.00,,,0.04,weatherlink.com 1.10,2013-12-15 15:26:00,
2013-12-15 10:46:00,28.6,26.0,29.87,SE,143,3.0,13.0,90,0.00,,,0.04,weatherlink.com 1.10,2013-12-15 15:46:00,
2013-12-15 11:05:00,28.5,26.0,29.88,NE,56,3.0,14.0,89,0.00,,,0.04,weatherlink.com 1.10,2013-12-15 16:05:00,
2013-12-15 11:23:00,28.2,26.0,29.87,ENE,71,8.0,10.0,90,0.00,,,0.04,weatherlink.com 1.10,2013-12-15 16:23:00,
2013-12-15 11:41:00,27.9,25.0,29.87,ESE,120,5.0,18.0,90,0.00,,,0.04,weatherlink.com 1.10,2013-12-15 16:41:00,
2013-12-15 11:59:00,27.4,25.0,29.87,ENE,70,3.0,16.0,91,0.00,,,0.04,weatherlink.com 1.10,2013-12-15 16:59:00,
2013-12-15 12:19:00,27.1,24.0,29.87,SSE,155,3.0,14.0,89,0.00,,,0.04,weatherlink.com 1.10,2013-12-15 17:19:00,
2013-12-15 12:37:00,26.6,23.0,29.88,ESE,103,4.0,20.0,87,0.00,,,0.04,weatherlink.com 1.10,2013-12-15 17:37:00,
2013-12-15 12:55:00,26.4,23.0,29.88,ENE,63,7.0,21.0,87,0.00,,,0.04,weatherlink.com 1.10,2013-12-15 17:55:00,
2013-12-15 13:15:00,26.4,23.0,29.88,SSE,156,3.0,11.0,86,0.00,,,0.04,weatherlink.com 1.10,2013-12-15 18:15:00,
2013-12-15 13:33:00,26.7,23.0,29.88,NNE,21,2.0,15.0,85,0.00,,,0.04,weatherlink.com 1.10,2013-12-15 18:33:00,
2013-12-15 13:51:00,27.0,23.0,29.88,SSE,150,6.0,17.0,84,0.00,,,0.04,weatherlink.com 1.10,2013-12-15 18:51:00,
2013-12-15 14:11:00,27.6,23.0,29.88,ESE,103,4.0,10.0,83,0.00,,,0.04,weatherlink.com 1.10,2013-12-15 19:11:00,
2013-12-15 14:29:00,27.9,24.0,29.88,ESE,118,9.0,11.0,84,0.00,,,0.04,weatherlink.com 1.10,2013-12-15 19:29:00,
2013-12-15 14:47:00,27.7,24.0,29.88,SE,129,3.0,11.0,86,0.00,,,0.04,weatherlink.com 1.10,2013-12-15 19:47:00,
2013-12-15 15:07:00,28.0,24.0,29.88,East,96,5.0,10.0,85,0.00,,,0.04,weatherlink.com 1.10,2013-12-15 20:07:00,
2013-12-15 15:25:00,28.1,24.0,29.88,East,98,4.0,12.0,84,0.00,,,0.04,weatherlink.com 1.10,2013-12-15 20:25:00,
2013-12-15 15:43:00,28.2,24.0,29.89,East,91,2.0,10.0,84,0.00,,,0.04,weatherlink.com 1.10,2013-12-15 20:43:00,
2013-12-15 16:01:00,28.1,24.0,29.89,ENE,65,13.0,15.0,83,0.00,,,0.04,weatherlink.com 1.10,2013-12-15 21:01:00,
2013-12-15 16:21:00,28.2,24.0,29.89,NE,56,9.0,14.0,83,0.00,,,0.04,weatherlink.com 1.10,2013-12-15 21:21:00,
2013-12-15 16:39:00,28.2,24.0,29.89,SE,134,3.0,21.0,84,0.00,,,0.04,weatherlink.com 1.10,2013-12-15 21:39:00,
2013-12-15 16:57:00,28.2,24.0,29.89,ENE,78,8.0,16.0,84,0.00,,,0.04,weatherlink.com 1.10,2013-12-15 21:57:00,
2013-12-15 17:17:00,28.3,24.0,29.90,ESE,120,4.0,16.0,85,0.00,,,0.04,weatherlink.com 1.10,2013-12-15 22:17:00,
2013-12-15 17:35:00,28.3,24.0,29.90,ENE,63,1.0,12.0,85,0.00,,,0.04,weatherlink.com 1.10,2013-12-15 22:35:00,
2013-12-15 17:53:00,28.5,24.0,29.91,ESE,111,12.0,17.0,83,0.00,,,0.04,weatherlink.com 1.10,2013-12-15 22:53:00,
2013-12-15 18:12:00,28.6,24.0,29.91,ESE,121,5.0,14.0,81,0.00,,,0.04,weatherlink.com 1.10,2013-12-15 23:12:00,
2013-12-15 18:30:00,28.6,24.0,29.91,SE,125,3.0,11.0,81,0.00,,,0.04,weatherlink.com 1.10,2013-12-15 23:30:00,
2013-12-15 18:48:00,28.6,24.0,29.92,NNE,21,6.0,15.0,81,0.00,,,0.04,weatherlink.com 1.10,2013-12-15 23:48:00,
2013-12-15 19:08:00,28.5,23.0,29.93,East,94,4.0,19.0,79,0.00,,,0.04,weatherlink.com 1.10,2013-12-16 00:08:00,
2013-12-15 19:26:00,28.3,22.0,29.94,East,81,5.0,15.0,76,0.00,,,0.04,weatherlink.com 1.10,2013-12-16 00:26:00,
2013-12-15 19:44:00,28.1,21.0,29.95,North,354,3.0,16.0,74,0.00,,,0.04,weatherlink.com 1.10,2013-12-16 00:44:00,
2013-12-15 20:04:00,27.8,20.0,29.95,ENE,72,8.0,18.0,73,0.00,,,0.04,weatherlink.com 1.10,2013-12-16 01:04:00,
2013-12-15 20:22:00,27.5,20.0,29.96,SSE,160,3.0,12.0,74,0.00,,,0.04,weatherlink.com 1.10,2013-12-16 01:22:00,
2013-12-15 20:40:00,27.3,20.0,29.97,East,92,8.0,20.0,74,0.00,,,0.04,weatherlink.com 1.10,2013-12-16 01:40:00,
2013-12-15 20:58:00,27.1,19.0,29.98,SE,134,6.0,25.0,72,0.00,,,0.04,weatherlink.com 1.10,2013-12-16 01:58:00,
2013-12-15 21:18:00,26.8,19.0,29.98,ESE,102,5.0,17.0,73,0.00,,,0.04,weatherlink.com 1.10,2013-12-16 02:18:00,
2013-12-15 21:36:00,26.7,19.0,29.98,East,90,12.0,21.0,73,0.00,,,0.04,weatherlink.com 1.10,2013-12-16 02:36:00,
2013-12-15 21:54:00,26.5,19.0,30.00,ESE,116,2.0,13.0,74,0.00,,,0.04,weatherlink.com 1.10,2013-12-16 02:54:00,
2013-12-15 22:14:00,26.0,18.0,30.00,ESE,115,7.0,17.0,71,0.00,,,0.04,weatherlink.com 1.10,2013-12-16 03:14:00,
2013-12-15 22:32:00,25.2,15.0,30.01,SE,133,8.0,21.0,65,0.00,,,0.04,weatherlink.com 1.10,2013-12-16 03:32:00,
2013-12-15 22:50:00,24.0,13.0,30.01,NE,43,2.0,19.0,64,0.00,,,0.04,weatherlink.com 1.10,2013-12-16 03:50:00,
2013-12-15 23:10:00,23.3,12.0,30.03,SE,127,2.0,14.0,61,0.00,,,0.04,weatherlink.com 1.10,2013-12-16 04:10:00,
2013-12-15 23:28:00,22.7,11.0,30.03,NNE,15,2.0,17.0,60,0.00,,,0.04,weatherlink.com 1.10,2013-12-16 04:28:00,
2013-12-15 23:46:00,22.0,11.0,30.04,ESE,115,7.0,16.0,63,0.00,,,0.04,weatherlink.com 1.10,2013-12-16 04:46:00,